Ponca City, OK

1:18 AM CST on November 19, 2019 (GMT -0600)
Ponca City Municipal

Weather History for KPNC - July, 2019

Change the Weather History Date:

Thursday, July 25, 2019

  Actual Average Record
Temperature  
Mean Temperature 76 °F -  
Max Temperature 89 °F 95 °F 106 °F (1964)
Min Temperature 66 °F 70 °F 61 °F (2004)
Cooling Degree Days 12    
Growing Degree Days 26 (Base 50)    
Moisture  
Dew Point 57 °F    
Average Humidity 46    
Maximum Humidity 73    
Minimum Humidity 33    
Precipitation  
Precipitation 0.00 in - - ()
Sea Level Pressure  
Sea Level Pressure 30.08 in    
Wind  
Wind Speed 9 mph (SSE)    
Max Wind Speed 18 mph    
Max Gust Speed 20 mph    
Visibility 10 miles    
Events      
Averages and records for this station are not official NWS values.
T = Trace of Precipitation, MM = Missing Value Source: NWS Daily Summary

Daily Weather History Graph

Daily Weather History Graph

Search for Another Location

Airport or City:

Astronomy

Jul. 25, 2019 Rise Set
Actual Time 6:28 AM CDT 8:40 PM CDT
Civil Twilight 5:59 AM CDT 9:09 PM CDT
Nautical Twilight 5:23 AM CDT 9:45 PM CDT
Astronomical Twilight 4:44 AM CDT 10:24 PM CDT
Moon 1:08 AM CDT (7/25) 2:28 PM CDT (7/25)
Length of Visible Light 15h 10m
Length of Day
14h 12m
Last Quarter, 44% of the Moon is Illuminated
Jul 25
Last Quarter
Jul 31
New
Aug 7
First Quarter
Aug 15
Full
Aug 23
Last Quarter

Hourly Weather History & Observations

Time (CDT) Temp. Heat Index Dew Point Humidity Pressure Visibility Wind Dir Wind Speed Gust Speed Precip Events Conditions
5:53 AM 66.9 °F - 57.0 °F 70% 30.09 in 10.0 mi SSE 8.1 mph - N/A   Clear
6:53 AM 66.9 °F - 57.9 °F 73% 30.11 in 10.0 mi SSE 8.1 mph - N/A   Clear
7:53 AM 70.0 °F - 57.9 °F 65% 30.12 in 10.0 mi South 5.8 mph - N/A   Clear
8:53 AM 71.1 °F - 59.0 °F 66% 30.14 in 10.0 mi South 5.8 mph - N/A   Clear
9:53 AM 77.0 °F - 59.0 °F 54% 30.14 in 10.0 mi SSW 9.2 mph - N/A   Clear
10:53 AM 82.0 °F 82.1 °F 59.0 °F 45% 30.13 in 10.0 mi South 9.2 mph - N/A   Clear
11:53 AM 84.9 °F 84.2 °F 57.9 °F 40% 30.11 in 10.0 mi SSW 10.4 mph 17.3 mph N/A   Clear
12:53 PM 84.9 °F 83.9 °F 57.0 °F 38% 30.10 in 10.0 mi SSW 8.1 mph - N/A   Clear
1:53 PM 87.1 °F 86.1 °F 57.9 °F 37% 30.09 in 10.0 mi SSW 6.9 mph - N/A   Clear
2:53 PM 87.1 °F 85.7 °F 55.9 °F 35% 30.06 in 10.0 mi SE 12.7 mph 19.6 mph N/A   Partly Cloudy
3:53 PM 87.1 °F 85.3 °F 55.0 °F 33% 30.05 in 10.0 mi South 9.2 mph 16.1 mph N/A   Clear
4:53 PM 87.1 °F 85.7 °F 55.9 °F 35% 30.04 in 10.0 mi SE 10.4 mph - N/A   Clear
5:53 PM 87.1 °F 85.7 °F 55.9 °F 35% 30.03 in 10.0 mi SE 12.7 mph - N/A   Clear
6:53 PM 86.0 °F 84.7 °F 55.9 °F 36% 30.03 in 10.0 mi SE 18.4 mph - N/A   Clear
7:53 PM 82.9 °F 82.0 °F 55.0 °F 38% 30.04 in 10.0 mi SE 12.7 mph - N/A   Clear
8:53 PM 80.1 °F 80.2 °F 55.9 °F 43% 30.05 in 10.0 mi SE 11.5 mph - N/A   Clear
9:53 PM 78.1 °F - 55.9 °F 46% 30.06 in 10.0 mi SSE 12.7 mph - N/A   Clear
10:53 PM 78.1 °F - 55.9 °F 46% 30.06 in 10.0 mi SSE 13.8 mph - N/A   Clear
11:53 PM 77.0 °F - 55.9 °F 48% 30.07 in 10.0 mi SSE 11.5 mph - N/A   Clear